Location: Unspecified
(0.0000°N, 0.0000°E)
Time: 07:57:52
(UTC+00:00)

FAST 1 (USA 222) - Pass Details

Date: 01 June 2024
Orbit: 613 x 632 km, 72.0° (Epoch: 13 June)

Event Time Altitude Azimuth Distance (km) Brightness Sun altitude
Rises 18:51:14 0° 354° (N) 2,879 ? -12.3°
Reaches altitude 10° 18:53:30 10° 358° (N) 1,980 ? -12.8°
Maximum altitude 18:57:51 54° 76° (ENE) 760 ? -13.8°
Enters shadow 19:01:06 17° 149° (SSE) 1,575 ? -14.6°
